Total_Precipitation_Accumulation
1.28 1.30 1.33 1.28 1.28 1.31 1.24 1.20 1.24 1.36 1.43 1.44 1.42 1.42 1.39 1.36 1.38 1.39 1.26 1.35 1.44 1.46 1.45 1.56 1.62 1.64 1.65 1.67 1.81 1.87 2.01 2.20 1.99 1.58 1.48 1.53 1.64 1.61 1.49 1.28 1.11 1.05 0.93
1.32 1.43 1.52 1.55 1.55 1.47 1.32 1.24 1.30 1.38 1.45 1.48 1.49 1.48 1.36 1.37 1.50 1.50 1.43 1.51 1.55 1.52 1.52 1.59 1.52 1.62 1.76 1.74 1.85 1.84 1.88 2.11 2.05 1.85 1.77 1.78 1.85 1.80 1.76 1.54 1.21 1.07 1.01
1.54 1.75 1.94 1.99 1.83 1.64 1.54 1.48 1.52 1.53 1.56 1.60 1.63 1.67 1.63 1.63 1.61 1.64 1.72 1.70 1.60 1.50 1.54 1.53 1.51 1.64 1.68 1.75 1.84 1.77 1.73 1.84 2.00 1.99 1.96 2.05 2.08 1.95 1.85 1.67 1.47 1.39 1.13
1.32 1.62 1.83 1.96 1.82 1.73 1.72 1.60 1.54 1.56 1.61 1.65 1.71 1.86 1.99 2.02 1.99 1.91 1.83 1.75 1.66 1.60 1.56 1.52 1.53 1.56 1.57 1.61 1.67 1.69 1.74 1.86 1.99 2.04 2.10 2.27 2.28 2.31 2.24 1.97 1.82 1.76 1.47
1.13 1.34 1.61 1.84 1.66 1.44 1.41 1.39 1.35 1.43 1.54 1.79 1.95 2.03 2.24 2.36 2.23 2.23 2.12 2.01 1.97 1.81 1.69 1.59 1.50 1.48 1.50 1.51 1.45 1.52 1.67 1.80 1.80 1.85 1.93 2.14 2.25 2.37 2.33 2.12 1.98 1.96 1.80
1.10 1.28 1.48 1.59 1.43 1.24 1.13 1.16 1.20 1.27 1.44 1.61 1.77 1.87 1.89 1.76 1.93 1.95 1.91 1.93 1.94 1.83 1.78 1.72 1.56 1.42 1.37 1.31 1.21 1.23 1.32 1.41 1.56 1.74 1.78 1.96 2.15 2.28 2.41 2.47 2.32 2.15 2.04
1.15 1.20 1.32 1.43 1.43 1.31 1.12 1.10 1.16 1.24 1.38 1.48 1.54 1.61 1.58 1.62 1.62 1.44 1.40 1.39 1.51 1.59 1.65 1.64 1.42 1.28 1.34 1.25 1.24 1.20 1.18 1.25 1.33 1.53 1.68 1.74 1.97 2.16 2.37 2.53 2.53 2.44 2.28
1.12 1.21 1.40 1.55 1.54 1.47 1.40 1.34 1.38 1.45 1.45 1.44 1.48 1.51 1.58 1.54 1.44 1.24 1.24 1.19 1.28 1.37 1.46 1.49 1.45 1.37 1.36 1.40 1.34 1.24 1.15 1.19 1.26 1.26 1.30 1.45 1.70 2.06 2.27 2.31 2.43 2.42 2.31
1.27 1.37 1.47 1.63 1.67 1.66 1.72 1.76 1.78 1.77 1.65 1.58 1.59 1.64 1.62 1.59 1.48 1.26 1.24 1.18 1.25 1.31 1.36 1.37 1.38 1.31 1.35 1.26 1.20 1.19 1.19 1.21 1.16 1.11 1.10 1.17 1.33 1.56 1.92 2.06 2.13 2.08 1.97
1.41 1.55 1.61 1.79 1.89 1.85 1.91 2.01 2.06 2.09 2.01 2.00 1.88 1.79 1.70 1.62 1.56 1.28 1.22 1.17 1.23 1.29 1.37 1.35 1.29 1.17 1.13 1.07 1.06 1.17 1.14 1.11 1.15 1.11 1.05 1.01 1.00 1.15 1.44 1.63 1.69 1.72 1.62
1.43 1.58 1.69 1.90 2.06 2.18 2.32 2.41 2.38 2.35 2.34 2.26 2.06 1.94 1.93 1.90 1.74 1.33 1.18 1.13 1.19 1.33 1.39 1.38 1.30 1.21 1.03 0.99 0.99 1.03 1.05 1.03 1.11 1.16 1.13 1.10 1.11 1.11 1.15 1.30 1.50 1.60 1.55
1.37 1.54 1.79 2.00 2.05 2.12 2.40 2.48 2.44 2.38 2.28 2.17 2.06 1.88 1.81 1.79 1.63 1.36 1.16 1.17 1.28 1.37 1.39 1.37 1.38 1.24 1.04 0.98 0.92 0.91 0.92 0.87 0.91 1.02 1.00 0.94 0.94 0.94 0.97 1.12 1.31 1.44 1.52
1.44 1.60 1.85 2.03 2.19 2.32 2.44 2.40 2.36 2.35 2.26 2.13 2.04 1.89 1.86 1.94 1.87 1.53 1.32 1.30 1.33 1.29 1.31 1.35 1.30 1.16 0.97 0.84 0.84 0.82 0.76 0.74 0.82 0.91 0.92 0.83 0.79 0.83 0.92 1.07 1.22 1.35 1.40
1.37 1.48 1.64 1.76 1.84 1.97 2.15 2.11 2.02 2.03 2.08 2.06 1.99 1.92 1.88 1.90 1.87 1.63 1.42 1.40 1.38 1.34 1.29 1.25 1.14 1.07 0.94 0.85 0.85 0.78 0.71 0.77 0.85 0.87 0.90 0.90 0.86 0.88 0.92 0.99 1.09 1.20 1.27
1.24 1.27 1.37 1.48 1.58 1.70 1.79 1.85 1.82 1.78 1.72 1.73 1.73 1.74 1.66 1.63 1.67 1.54 1.41 1.46 1.53 1.54 1.47 1.41 1.29 1.19 1.05 0.95 0.93 0.95 0.96 1.01 0.99 0.97 1.01 1.06 1.03 0.97 0.94 0.97 1.10 1.14 1.10
1.29 1.26 1.25 1.30 1.38 1.44 1.54 1.56 1.53 1.43 1.31 1.22 1.18 1.19 1.18 1.23 1.33 1.26 1.19 1.26 1.35 1.42 1.36 1.30 1.25 1.18 1.09 1.08 1.12 1.14 1.12 1.13 1.09 1.10 1.11 1.14 1.14 1.06 0.98 0.97 1.07 1.13 1.07
1.38 1.31 1.28 1.22 1.23 1.31 1.38 1.44 1.43 1.27 1.09 0.95 0.85 0.82 0.82 0.90 0.99 1.00 1.02 1.11 1.22 1.31 1.29 1.29 1.26 1.23 1.16 1.14 1.16 1.16 1.13 1.12 1.16 1.17 1.17 1.18 1.22 1.22 1.18 1.12 1.10 1.15 1.13
1.38 1.33 1.26 1.20 1.16 1.19 1.23 1.25 1.32 1.38 1.29 1.10 0.90 0.74 0.68 0.68 0.73 0.83 0.93 1.05 1.17 1.21 1.20 1.25 1.23 1.21 1.18 1.15 1.11 1.12 1.12 1.15 1.15 1.14 1.17 1.20 1.26 1.27 1.28 1.21 1.13 1.11 1.13
1.18 1.15 1.11 1.12 1.14 1.13 1.16 1.17 1.16 1.23 1.23 1.18 1.04 0.86 0.75 0.67 0.68 0.77 0.81 0.88 1.06 1.13 1.13 1.12 1.08 1.04 1.01 1.01 1.01 1.00 0.99 1.01 1.03 1.09 1.10 1.10 1.16 1.15 1.11 1.08 1.09 1.08 1.09
1.15 1.10 1.03 1.04 1.09 1.11 1.12 1.13 1.10 1.16 1.17 1.17 1.07 0.90 0.76 0.66 0.66 0.71 0.75 0.88 1.06 1.08 1.04 0.99 0.99 0.96 0.95 0.94 0.95 0.93 0.93 0.95 1.00 1.09 1.10 1.08 1.10 1.08 1.02 1.02 1.07 1.10 1.07
1.14 1.05 0.92 0.89 0.93 0.99 1.04 1.05 1.03 1.05 1.05 1.08 0.98 0.78 0.67 0.62 0.67 0.74 0.83 0.96 1.05 1.00 0.95 0.91 0.90 0.86 0.84 0.84 0.85 0.87 0.91 0.96 1.00 1.05 1.10 1.12 1.14 1.11 1.05 1.05 1.09 1.13 1.14
1.17 1.09 0.95 0.83 0.82 0.88 0.94 0.97 0.98 0.97 0.97 0.97 0.88 0.69 0.60 0.55 0.62 0.71 0.79 0.88 0.93 0.92 0.89 0.88 0.84 0.77 0.77 0.79 0.82 0.89 0.93 0.95 0.99 1.06 1.09 1.12 1.17 1.13 1.11 1.11 1.10 1.14 1.19
1.10 1.04 0.94 0.78 0.75 0.81 0.87 0.95 0.94 0.88 0.90 0.89 0.80 0.68 0.62 0.64 0.67 0.75 0.83 0.87 0.89 0.92 0.91 0.85 0.79 0.74 0.74 0.75 0.78 0.84 0.90 0.95 0.95 0.99 1.03 1.07 1.12 1.13 1.15 1.14 1.09 1.14 1.17
0.95 0.96 0.93 0.77 0.71 0.83 0.91 0.98 0.93 0.84 0.85 0.82 0.73 0.70 0.69 0.72 0.73 0.75 0.79 0.84 0.86 0.85 0.84 0.81 0.73 0.68 0.68 0.71 0.74 0.75 0.78 0.80 0.81 0.86 0.89 0.95 1.00 1.05 1.08 1.08 1.07 1.10 1.15
0.86 0.86 0.90 0.82 0.75 0.83 0.91 0.95 0.92 0.84 0.79 0.72 0.66 0.68 0.70 0.68 0.70 0.73 0.76 0.81 0.81 0.78 0.74 0.71 0.72 0.72 0.70 0.71 0.72 0.74 0.74 0.67 0.64 0.67 0.72 0.81 0.85 0.93 0.96 0.94 0.98 1.05 1.12
0.77 0.76 0.80 0.79 0.75 0.80 0.87 0.89 0.88 0.80 0.73 0.67 0.64 0.65 0.67 0.68 0.69 0.70 0.71 0.72 0.73 0.74 0.73 0.71 0.69 0.67 0.66 0.64 0.60 0.59 0.55 0.49 0.48 0.55 0.60 0.67 0.75 0.83 0.86 0.87 0.86 0.93 1.01